Regional Weather Roundup
Issued by NWS

Home | Current Version | Previous Version | Text Only | Print | Product List | Glossary On
Versions: 1 2 3 4 5 6 7 8 9 10 11 12 13 14 15 16 17 18 19 20 21 22 23 24 25 26 27 28 29 30 31 32 33 34 35 36 37 38 39 40 41 42 43 44 45 46 47 48 49 50
000
ASUS43 KMPX 180410
RWRMN
WEATHER ROUNDUP FOR MINNESOTA
NATIONAL WEATHER SERVICE TWIN CITIES/CHANHASSEN MN
1000 PM CST FRI NOV 17 2017


NOTE: "FAIR" INDICATES FEW OR NO CLOUDS BELOW 12,000 FEET WITH NO
SIGNIFICANT WEATHER AND/OR OBSTRUCTIONS TO VISIBILITY. N/A MEANS
CURRENT SKY AND/OR WEATHER CONDITIONS ARE NOT AVAILABLE.

MNZ060>063-068>070-180500-
   Twin Cities Metro

CITY           SKY/WX    TMP DP  RH WIND       PRES   REMARKS
TWIN CITIES    CLOUDY    37  35  92 VRB7      29.67R
ST PAUL        CLOUDY    37  36  96 NW6       29.69R
CRYSTAL        CLOUDY    37  33  85 NW3       29.67R FOG
BLAINE         CLOUDY    37  37 100 N3        29.68R FOG
LAKEVILLE      CLOUDY    36  36 100 N5        29.64F FOG
EDEN PRAIRIE   MOCLDY    36  34  92 N6        29.66S FOG
SOUTH ST PAUL  CLOUDY    37  37 100 NW3       29.67S FOG
LAKE ELMO      CLOUDY    36  36 100 CALM      29.66F FOG
$$
MNZ001>005-007-008-013>017-022>024-027-028-180500-
   Northwest Minnesota

CITY           SKY/WX    TMP DP  RH WIND       PRES   REMARKS
BEMIDJI        CLOUDY    21  17  84 NW8       29.73R WCI  12
HALLOCK        CLOUDY     9   7  92 CALM      29.80R
ROSEAU         CLEAR     16  10  79 CALM      29.77R
WARROAD        CLEAR     16  12  86 W6        29.76R WCI   7
THIEF RVR FALL PTCLDY    16  14  92 NW7       29.78R WCI   6
CROOKSTON      CLOUDY    19  16  86 N3        29.81R
FOSSTON        CLOUDY    18  16  93 NW5       29.77R WCI  11
DETROIT LAKES  CLOUDY    23  21  93 N10       29.75R WCI  12
MOORHEAD       CLOUDY    21  16  79 N8        29.80R WCI  12
PARK RAPIDS    CLOUDY    28  21  75 NW7       29.71R WCI  21
MAHNOMEN       FAIR      21  17  86 N8        29.76R WCI  11
$$
MNZ006-009>011-018-025>026-180500-
   North Central Minnesota

CITY           SKY/WX    TMP DP  RH WIND       PRES   REMARKS
BAUDETTE       CLOUDY    19  14  81 NW9       29.74R WCI   8
FLAG ISLAND    CLEAR     16  12  86 W8        29.74R WCI   5
INTL FALLS     CLOUDY    23  17  78 NW6       29.71R HAZE    WCI  16
WASKISH        CLOUDY    21  18  86 NW6       29.74R WCI  14
BIG FORK       CLOUDY    27  19  74 N5        29.70R WCI  21
LONGVILLE      CLOUDY    28  25  86 NW3       29.70R
GRAND RAPIDS   CLOUDY    30  28  92 NW12      29.69R WCI  20
CRANE LAKE     CLOUDY    28  27  93 CALM      29.69S
ORR            CLOUDY    27  21  80 NW6       29.66S WCI  20
COOK           CLOUDY    28  25  86 N6        29.67S WCI  22
WALKER         FAIR      26  19  74 NW5       29.72R WCI  20
$$
MNZ012-019>021-037-180500-
   Northeast Minnesota

CITY           SKY/WX    TMP DP  RH WIND       PRES   REMARKS
DULUTH         CLOUDY    32  32 100 NW5       29.63F WCI  27
ELY            CLOUDY    30  28  93 NW3       29.65R
HIBBING        CLOUDY    30  27  88 NW7       29.65S WCI  23
EVELETH        CLOUDY    32  27  80 N3        29.65F
DULUTH HARBOR  CLOUDY    34  32  93 SW3       29.67F FOG
TWO HARBORS    CLOUDY    36  30  80 CALM      29.63R HAZE
SILVER BAY     CLOUDY    34  34 100 CALM      29.62S FOG
GRAND MARAIS     N/A     36  32  85 CALM      29.63S
G MARAIS ARPRT CLOUDY    28  25  86 NW13G20   29.58F WCI  18
$$
MNZ029>031-032-039>041-046>048-054>057-064-180500-
   West Central Minnesota

CITY           SKY/WX    TMP DP  RH WIND       PRES   REMARKS
FERGUS FALLS   CLOUDY    27  19  74 N14       29.78S WCI  15
WHEATON        CLOUDY    28  21  74 NW15      29.79R WCI  17
MORRIS         CLOUDY    30  23  74 NW15      29.71S WCI  19
ALEXANDRIA     CLOUDY    32  27  81 N9        29.70R WCI  24
ELBOW LAKE     FAIR      27  22  80 W10       29.73F WCI  17
WADENA         CLOUDY    28  25  86 NW5       29.72R WCI  23
GLENWOOD       MOCLDY    34  30  86 N9        29.69S WCI  26
APPLETON       CLOUDY    34  27  75 NW16      29.73S WCI  23
BENSON         CLOUDY    32  27  80 N12       29.72R WCI  23
ORTONVILLE     CLOUDY    30  25  80 MISG      29.76R
MADISON        CLOUDY    36  28  75 NW10      29.74R
WILLMAR        FAIR      34  34 100 W3        29.70R
$$
MNZ033>034-036-042>043-049>051-058-059-180500-
   Central Minnesota

CITY           SKY/WX    TMP DP  RH WIND       PRES   REMARKS
ST CLOUD       CLOUDY    32  32 100 W3        29.67S FOG
SAUK CENTRE    CLOUDY    33  31  94 NW8       29.69S WCI  25
PAYNESVILLE    CLOUDY    33  33  99 NW3       29.69S
AITKIN         CLOUDY    30  28  93 NW3       29.67R
PINE RIVER     CLOUDY    28  25  86 N5        29.74R WCI  23
BRAINERD       CLOUDY    33  30  88 NW5       29.70R WCI  29
STAPLES        CLOUDY    30  28  93 NW6       29.71R WCI  24
LONG PRAIRIE   FAIR      32  30  93 W7        29.69R WCI  26
LITTLE FALLS   CLOUDY    32  32 100 CALM      29.69R FOG
LITCHFIELD     CLOUDY    34  34 100 NW3       29.68S
BUFFALO        CLOUDY    35  33  92 CALM      29.68R FOG
MAPLE LAKE     MOCLDY    35  34  97 CALM      29.68R FOG
HUTCHINSON     CLOUDY    36  35  96 CALM      29.68F FOG
$$
MNZ037-044-045-052-053-180500-
   East Central Minnesota

CITY           SKY/WX    TMP DP  RH WIND       PRES   REMARKS
PRINCETON      CLOUDY    36  34  93 CALM      29.68R FOG
MORA           FOG       32  32 100 CALM      29.68F VSB 3/4
CAMBRIDGE      CLOUDY    36  36 100 CALM      29.67F FOG
RUSH CITY      CLOUDY    32  32  99 CALM      29.66F FOG
MOOSE LAKE     CLOUDY    32  32 100 CALM      29.64S FOG
HINCKLEY       FAIR      32  32 100 CALM      29.65F FOG
CLOQUET        CLOUDY   N/A N/A N/A NW3       29.64F FOG
MCGREGOR       CLOUDY    32  30  93 NW3       29.67R
$$
MNZ071>073-080-081-089-090-097-098-180500-
   Southwest Minnesota

CITY           SKY/WX    TMP DP  RH WIND       PRES   REMARKS
MONTEVIDEO     CLOUDY    32  28  86 N9G17     29.72R WCI  24
GRANITE FALLS  CLOUDY    35  32  88 NW7       29.72R WCI  29
CANBY          CLOUDY    34  29  83 W12       29.75R WCI  25
MARSHALL       CLOUDY    34  30  85 N10       29.70R WCI  26
REDWOOD FALLS  CLOUDY    36  31  82 NW8       29.69S
OLIVIA         CLOUDY    34  32  93 NW3       29.68R
PIPESTONE      CLOUDY    34  30  86 N6        29.67F WCI  29
WINDOM         CLOUDY    36  25  64 N10       29.66S
WORTHINGTON    CLOUDY    35  32  88 N16       29.66R WCI  25
JACKSON        CLOUDY    36  34  93 VRB7      29.65R
SLAYTON        CLOUDY    33  32  95 N12       29.68S WCI  25
$$
MNZ065>067-074>077-082>085-091>093-180500-
   South Central Minnesota

CITY           SKY/WX    TMP DP  RH WIND       PRES   REMARKS
MANKATO        CLOUDY    37  34  87 N8        29.66R FOG
NEW ULM        CLOUDY    37  34  87 CALM      29.67R
ST JAMES       CLOUDY    37  36  93 N5        29.67S
FAIRMONT       CLOUDY    37  35  92 N14       29.65F
GLENCOE        CLOUDY    37  37 100 N3        29.66S FOG
FARIBAULT      CLOUDY    37  37 100 N8        29.65S FOG
OWATONNA       CLOUDY    37  36  93 N9        29.63S FOG
WASECA         CLOUDY    36  36 100 N8        29.65R FOG
ALBERT LEA     FOG       37  36  93 NW6       29.64R VSB 1
$$
MNZ078>079-086>088-094>096-180500-
   Southeast Minnesota

CITY           SKY/WX    TMP DP  RH WIND       PRES   REMARKS
ROCHESTER      LGT RAIN  37  37 100 N15       29.60F VSB 1
RED WING       CLOUDY    37  36  93 CALM      29.64F FOG
STANTON        CLOUDY    38  37  96 N8        29.61F FOG
DODGE CENTER   SNOW      36  36 100 N8        29.60F VSB 1/2
WINONA         CLOUDY    36  36 100 NW5       29.65R FOG
AUSTIN         FOG       37  36  93 N6        29.61R VSB 1
PRESTON        LGT RAIN  36  35  96 N7        29.58F VSB 1/2
$$
ABBREVIATIONS USED IN REMARKS
   TC - TEMPERATURES IN CELSIUS
  WCI - WIND CHILL INDEX
   HX - HEAT INDEX
  VSB - VISIBILITY
$$



USA.gov is the U.S. government's official web portal to all federal, state and local government web resources and services.